This demonstration page uses our WeatherBlox Daily Observations layout. Learn more.

Left ArrowRight Arrow

Hourly Observations for November 15, 2016

Temp ( °F °C ) Dew Point ( °F °C ) Humidity (%) Winds ( mph kmh ) Pressure ( in mb ) Visibility ( mi km ) Precip ( " mm )
12:53 am 00:53 Clear 45 7.2 42 5.6 90 90 N 7 11 30.08 1019 10 16 0.00 0.00
1:53 am 01:53 Clear 45 7.2 41 5 86 86 N 7 11 30.06 1018 10 16 0.00 0.00
2:53 am 02:53 Clear 43 6.1 40 4.4 89 89 NNE 8 13 30.06 1018 10 16 0.00 0.00
3:53 am 03:53 Clear 44 6.7 40 4.4 85 85 Calm 30.06 1018 10 16 0.00 0.00
4:53 am 04:53 Clear 43 6.1 39 3.9 86 86 Calm 30.06 1018 10 16 0.00 0.00
5:53 am 05:53 Clear 41 5 39 3.9 93 93 WSW 3 6 30.08 1019 10 16 0.00 0.00
6:53 am 06:53 Clear 39 3.9 38 3.3 96 96 N 6 9 30.10 1019 10 16 0.00 0.00
7:53 am 07:53 Sunny 42 5.6 39 3.9 89 89 NNW 3 6 30.11 1020 10 16 0.00 0.00
8:53 am 08:53 Sunny 51 10.6 42 5.6 71 71 Calm 30.11 1020 10 16 0.00 0.00
9:53 am 09:53 Sunny 62 16.7 37 2.8 40 40 Calm 30.10 1019 10 16 0.00 0.00
10:53 am 10:53 Sunny 68 20 36 2.2 31 31 SW 6 9 30.09 1019 10 16 0.00 0.00
11:53 am 11:53 Sunny 71 21.7 35 1.7 27 27 WSW 3 6 30.08 1019 10 16 0.00 0.00
12:53 pm 12:53 Sunny 75 23.9 33 0.6 22 22 SW 7 11 30.05 1018 10 16 0.00 0.00
1:53 pm 13:53 Sunny 78 25.6 31 -0.6 18 18 SW 8 13 30.01 1016 10 16 0.00 0.00
2:53 pm 14:53 Sunny 80 26.7 30 -1.1 16 16 S 7 11 29.99 1016 10 16 0.00 0.00
3:53 pm 15:53 Sunny 81 27.2 26 -3.3 13 13 SW 9 15 29.97 1015 10 16 0.00 0.00
4:53 pm 16:53 Sunny 80 26.7 27 -2.8 14 14 SSW 9 15 29.96 1015 10 16 0.00 0.00
5:53 pm 17:53 Sunny 69 20.6 34 1.1 27 27 S 9 15 29.98 1015 10 16 0.00 0.00
6:53 pm 18:53 Clear 63 17.2 34 1.1 34 34 S 9 15 30.01 1016 10 16 0.00 0.00
7:53 pm 19:53 Clear 60 15.6 35 1.7 39 39 S 7 11 30.01 1016 10 16 0.00 0.00
8:53 pm 20:53 Clear 57 13.9 36 2.2 45 45 SE 8 13 29.99 1016 10 16 0.00 0.00
9:53 pm 21:53 Clear 57 13.9 36 2.2 45 45 SE 6 9 29.98 1015 10 16 0.00 0.00
10:53 pm 22:53 Clear 53 11.7 38 3.3 57 57 S 7 11 29.98 1015 10 16 0.00 0.00
11:53 pm 23:53 Clear 54 12.2 37 2.8 53 53 SSW 9 15 29.97 1015 10 16 0.00 0.00

Powered by AerisWeather